Terminal Aerodrome Forecast
Issued by NWS Charleston, WV

Current Version | Previous Version | Graphics & Text | Print | Product List | Glossary On
Versions: 1 2 3 4 5 6 7 8 9 10 11 12 13 14 15 16 17 18 19 20 21 22 23 24 25 26 27 28
000
FTUS41 KRLX 252000 AAB
TAFHTS
TAF AMD
KHTS 252047Z 2521/2618 07006KT 5SM -SHRA VCTS BKN005 OVC010CB
     FM252200 06008KT P6SM SCT005 OVC010
     FM260300 04009KT 5SM SHRA BR OVC008
     FM260500 07004G10KT 5SM SHRA BR OVC004
     FM260800 36007KT 6SM -SHRA BR OVC020
     FM260900 35007KT P6SM OVC030
     FM261500 36004G11KT P6SM SCT045=

USA.gov is the U.S. government's official web portal to all federal, state and local government web resources and services.